[Iaude] MPEC U207: 2023 UJ6 [a=2.16,e=0.69,i=7.1,H=27.5]

mpec at marsden.cfa.harvard.edu mpec at marsden.cfa.harvard.edu
Mon Oct 23 06:58:56 EDT 2023


M.P.E.C. 2023-U207                             Issued 2023 October 23, 10:57 UT

     The Minor Planet Electronic Circulars contain information on unusual
         minor planets, routine data on comets and natural satellites,
         and occasional editorial announcements.  They are published
    on behalf of Division F of the International Astronomical Union by the
          Minor Planet Center, Smithsonian Astrophysical Observatory,
                          Cambridge, MA 02138, U.S.A.
			  
             Prepared using the Tamkin Foundation Computer Network

                              MPC at CFA.HARVARD.EDU
            URL https://www.minorplanetcenter.net/    ISSN 1523-6714

                                    2023 UJ6                                    


Observations:
     K23U06J* C2023 10 20.41231602 31 23.556+21 58 20.42         21.63GVEU207V00
     K23U06J  C2023 10 20.42527202 31 17.720+21 55 20.60         22.39GVEU207V00
     K23U06J  C2023 10 20.43077402 31 15.251+21 54 04.39         22.10GVEU207V00
     K23U06J  C2023 10 20.46104302 31 01.582+21 46 58.20         22.4 GVEU207H01
     K23U06J  C2023 10 20.46453302 31 00.073+21 46 10.27         21.4 GVEU207H01
     K23U06J  C2023 10 20.47545402 30 55.411+21 43 40.20         22.5 GVEU207H01
     K23U06J  C2023 10 20.48140902 30 52.889+21 42 18.35         21.3 GVEU207H01
     K23U06J KC2023 10 21.26829 02 26 33.73 +19 06 28.4          22.3 GVEU207291
     K23U06J KC2023 10 21.28030 02 26 29.61 +19 04 23.0          22.2 GVEU207291
     K23U06J KC2023 10 21.29264 02 26 25.39 +19 02 14.9          22.4 GVEU207291
     K23U06J KC2023 10 22.37951 02 21 49.83 +16 19 38.3          23.3 GVEU207291
     K23U06J KC2023 10 22.38942 02 21 47.36 +16 18 21.3          22.7 GVEU207291
     K23U06J KC2023 10 22.39921 02 21 44.95 +16 17 05.3          22.8 GVEU207291
     K23U06J KC2023 10 23.19240 02 19 21.51 +14 45 13.4                VEU207291
     K23U06J KC2023 10 23.20409 02 19 19.21 +14 44 00.8          23.8 GVEU207291
     K23U06J KC2023 10 23.21590 02 19 16.92 +14 42 48.1          23.1 GVEU207291

Observer details:
291 LPL/Spacewatch II.  Observers M. J. Brucker, A. F. Tubbiolo.  1.8-m f/2.7
    reflector + CCD.
H01 Magdalena Ridge Observatory, Socorro.  Observers W. H. Ryan, E. V. Ryan.
    Measurer W. H. Ryan.  2.4-m f/8.9 Ritchey-Chretien + CCD.
V00 Kitt Peak-Bok.  Observer R. A. Mastaler.  Measurers M. J. Brucker, C. E.
    Woodward, D. Fay, J. B. Fazekas, D. C. Fuls, A. R. Gibbs, H. Groeller, J.
    K. Hogan, R. A. Kowalski, S. M. Larson, C. Lejoly, G. J. Leonard, R. A.
    Mastaler, R. S. McMillan, D. Rankin, R. L. Seaman, A. Serrano, F. C.
    Shelly, K. W. Wierzchos.  2.25-m reflector + 4x4K mosaic CCD.

Orbital elements:
2023 UJ6                                                 Earth MOID = 0.0175 AU
Epoch 2023 Sept. 13.0 TT = JDT 2460200.5                Veres                   
M   3.96136              (2000.0)            P               Q                  
n   0.31151606     Peri.   93.95093     +0.56069707     +0.82565701             
a   2.1551744      Node   210.42102     -0.80024107     +0.52094351             
e   0.6854752      Incl.    7.09301     -0.21268058     +0.21658338             
P   3.16           H   27.58          G   0.15           U   9                  
Residuals in seconds of arc
231020 V00  0.1-  0.1-    231020 H01  0.0   0.4-    231022 291  0.3+  0.0
231020 V00  0.1+  0.2+    231021 291  0.0   0.2+    231023 291  0.4-  0.1+
231020 V00  0.0   0.3+    231021 291  0.1-  0.1-    231023 291  0.4-  0.2-
231020 H01  0.0   0.4-    231021 291  0.1-  0.2+    231023 291  0.3+  0.0
231020 H01  0.1-  0.3-    231022 291  0.3+  0.3+
231020 H01  0.0   0.2-    231022 291  0.2+  0.1+

Ephemeris:
2023 UJ6                 a,e,i = 2.16, 0.69, 7                   q = 0.6779
Date    TT    R. A. (2000) Decl.     Delta      r    Elong.  Phase     V
2023 09 23    13 44 50.6 +03 28 04   0.2612  0.7799    26.9   144.3    31.6
...
2023 10 08    13 35 13.7 +14 07 57   0.08566 0.9208    22.4   155.5    31.7
...
2023 10 16    05 26 57.2 +64 53 47   0.02445 1.0056   109.6    69.0    22.0
...
2023 10 22    02 23 17.1 +17 11 33   0.07708 1.0711   168.5    10.7    22.8
2023 10 23    02 19 51.2 +15 06 32   0.08786 1.0821   171.2     8.1    23.0
2023 10 24    02 17 12.4 +13 28 44   0.09879 1.0931   173.4     6.0    23.2
...
2023 10 30    02 08 52.8 +08 17 59   0.1666  1.1592   174.6     4.6    24.4
...
2023 11 07    02 05 00.6 +05 49 53   0.2624  1.2472   165.7    11.3    25.9
...
2023 11 22    02 05 18.9 +04 48 53   0.4614  1.4090   150.9    19.9    27.6

M. P. C. Staff               (C) Copyright 2023 MPC           M.P.E.C. 2023-U207





More information about the Iaude mailing list